Regional Weather Roundup
Issued by NWS

Home | Current Version | Previous Version | Text Only | Print | Product List | Glossary Off
Versions: 1 2 3 4 5 6 7 8 9 10 11 12 13 14 15 16 17 18 19 20 21 22 23 24 25 26 27 28 29 30 31 32 33 34 35 36 37 38 39 40 41 42 43 44 45 46 47 48 49 50

000
ASUS45 KTFX 271710
RWRMT
MONTANA REGIONAL WEATHER ROUNDUP
NATIONAL WEATHER SERVICE GREAT FALLS MT
1100 AM MDT FRI MAY 27 2016

NOTE: "FAIR" INDICATES FEW OR NO CLOUDS BELOW 12000 FEET WITH NO
SIGNIFICANT WEATHER AND/OR OBSTRUCTIONS TO VISIBILITY.

MTZ001>007-043-271800-
WEST OF THE DIVIDE

CITY           SKY/WX    TMP DP  RH WIND       PRES   REMARKS
KALISPELL      LGT RAIN  53  45  74 W8        29.93R
MISSOULA       CLOUDY    56  42  59 NW9       29.96S
BUTTE          CLOUDY    52  37  56 N3        29.94F
MULLAN PASS    CLOUDY    33  32  96 VRB5      29.99R
ANACONDA         N/A     55  36  47 SW6       29.92F
DEER LODGE       N/A     48  43  81 N5        29.95S
EUREKA           N/A     54  39  58 S9        29.93R
HAMILTON         N/A     55  37  50 N3        29.93F
LIBBY            N/A     55  37  50 S6        29.95R
$$

MTZ008-052>055-271800-
SOUTHWEST MONTANA

CITY           SKY/WX    TMP DP  RH WIND       PRES   REMARKS
BOZEMAN        CLOUDY    50  45  83 NW3       29.95S
DILLON         PTSUNNY   54  41  61 E3        29.91F
W YELLOWSTONE  CLOUDY    46  39  76 NE3       29.98F
ENNIS          PTSUNNY   54  39  58 N10       29.98F
$$

MTZ009-010-012-014-046-048-049-054-271800-
EAST SLOPES AND CENTRAL MONTANA

CITY           SKY/WX    TMP DP  RH WIND       PRES   REMARKS
CUT BANK       PTSUNNY   60  40  47 SW22G29   29.85S
GREAT FALLS    CLOUDY    60  42  51 SW13      29.87F
MALMSTROM AFB  PTSUNNY   59  46  60 SW15      29.87F
HELENA         CLOUDY    59  46  62 SE10      29.91S
CHOTEAU          N/A     63  39  42 S10G18    29.86F
$$

MTZ011-013-016-021-045-047-050-051-271800-
NORTH CENTRAL MONTANA

CITY           SKY/WX    TMP DP  RH WIND       PRES   REMARKS
HAVRE          SUNNY     64  49  57 VRB3      29.84F
LEWISTOWN      PTSUNNY   64  44  48 CALM      29.87F
N BAR RANCH      N/A     59  45  58 VRB3      29.90F
CHINOOK          N/A     63  48  59 E12       29.85F
$$

MTZ017>020-022>027-061-062-271800-
NORTHEAST MONTANA

CITY           SKY/WX    TMP DP  RH WIND       PRES   REMARKS
GLASGOW        CLOUDY    62  48  60 VRB7      29.87F
JORDAN           N/A     58  49  72 NE3       29.88S
SIDNEY         PTSUNNY   62  50  64 NE7       29.86F
WOLF POINT     MOSUNNY   65  47  52 VRB6      29.88F
POPLAR           N/A     63  50  63 NE6       29.88S
$$

MTZ028>42-056>058-271800-
SOUTHCENTRAL AND SOUTHEAST MONTANA

CITY           SKY/WX    TMP DP  RH WIND       PRES   REMARKS
BAKER          CLOUDY    62  47  57 NW10G18   29.86F
BILLINGS       MOSUNNY   61  44  53 SW5       29.88F
LIVINGSTON     CLOUDY    58  43  57 NW13      29.90F
MILES CITY     CLOUDY    62  49  62 N5        29.86S
FORSYTH          N/A     55  52  88 W3        29.87S
$$

REGIONAL REPORTS...DAKOTAS

CITY           SKY/WX    TMP DP  RH WIND       PRES   REMARKS
WILLISTON      PTSUNNY   64  50  60 N9        29.85F
MINOT          CLOUDY    64  54  69 N7        29.82S
DICKINSON      MOSUNNY   64  47  53 VRB6      29.83S
BEACH          CLOUDY    61  48  63 N8        29.89S
CROSBY           N/A     61  59  94 N9        29.88F
WATFORD CITY   PTSUNNY   63  50  63 NW5       29.86S
BISMARCK       MOSUNNY   68  51  54 N10       29.83S
GRAND FORKS    PTSUNNY   68  53  58 CALM      29.80F
FARGO          CLOUDY    73  58  59 N12       29.76F
BUFFALO SD       N/A     64  44  48 NW10      29.79R
RAPID CITY     PTSUNNY   65  44  46 N14       29.86R
$$

REGIONAL REPORTS...WYOMING/IDAHO/WASHINGTON

CITY           SKY/WX    TMP DP  RH WIND       PRES   REMARKS
GILLETTE       PTSUNNY   59  43  55 W10       29.89F
SHERIDAN       SUNNY     62  43  49 CALM      29.89S
BUFFALO WY     SUNNY     61  41  47 N8        29.91F
CODY           SUNNY     63  36  36 W13       29.89F
YELLOWSTONE LA   N/A     43  38  82 VRB5      30.05F
IDAHO FALLS    MOSUNNY   59  43  55 SW13      29.95F
SALMON         PTSUNNY   55  41  58 W7        29.89F
BOISE          SUNNY     57  35  43 NW18      30.01F
SPOKANE        LGT RAIN  48  40  73 SW13      30.00R
$$

REGIONAL REPORTS...ALBERTA

CITY           SKY/WX    TMP DP  RH WIND       PRES   REMARKS
EDMONTON       CLOUDY    54  48  82 N5        29.78S
CALGARY        CLOUDY    50  45  81 N8        29.80F
LETHBRIDGE     PTSUNNY   61  43  51 SW6       29.81S
MEDICINE HAT   LGT RAIN  57  50  77 NE3       29.82F
WATERTON GATE    N/A     54  36  50 SW13G20     N/A
MILK RIVER       N/A     61  46  59 S7          N/A
$$

REGIONAL REPORTS...SASKATCHEWAN

CITY           SKY/WX    TMP DP  RH WIND       PRES   REMARKS
SWIFT CURRENT  SUNNY     64  50  59 SE10G21   29.88S
REGINA         PTSUNNY   70  52  52 E10       29.87F
SASKATOON      MOSUNNY   72  50  46 SE5       29.88F
ROCKGLEN         N/A     61  48  63 N3          N/A
ASSINIBOIA       N/A     64  54  68 SE7         N/A
$$



USA.gov is the U.S. government's official web portal to all federal, state and local government web resources and services.